SILO RECORD LiDAR
| Silo ID | Silo Type | Reliability | Strength | Temperature | Humidity | Depth | Height | Volume | Weight | Flag | Internal IP | Time | VMS DATA | 3D 좌표계 |
|---|---|---|---|---|---|---|---|---|---|---|---|---|---|---|
| WJWJR05 | 1 | 2832 % | 3843 | 80 °C | 100 % | 7354 mm | 3459 mm | 2591 ㎥ | 8609 t | 15 | 2026-07-24 11:58:53.000 | |||
| WJWJR05 | 1 | 8835 % | 2579 | 80 °C | 100 % | 1593 mm | 7447 mm | 2058 ㎥ | 3757 t | 15 | 2026-07-24 11:58:45.000 | |||
| WJWJR05 | 1 | 9021 % | 8172 | 80 °C | 100 % | 3307 mm | 1588 mm | 1764 ㎥ | 7788 t | 15 | 2026-07-24 11:58:38.000 | |||
| WJWJR05 | 1 | 6485 % | 2224 | 80 °C | 100 % | 2963 mm | 9488 mm | 4802 ㎥ | 4839 t | 15 | 2026-07-24 11:58:32.000 | |||
| WJWJR05 | 1 | 2636 % | 6268 | 80 °C | 100 % | 2293 mm | 1492 mm | 1849 ㎥ | 3584 t | 15 | 2026-07-24 11:58:24.000 | |||
| WJWJR05 | 1 | 7534 % | 6518 | 80 °C | 100 % | 6368 mm | 4508 mm | 6056 ㎥ | 9017 t | 15 | 2026-07-24 11:58:16.000 | |||
| WJWJR05 | 1 | 5176 % | 6186 | 80 °C | 100 % | 2061 mm | 6167 mm | 2289 ㎥ | 5631 t | 15 | 2026-07-24 11:58:11.000 | |||
| WJWJR05 | 1 | 5292 % | 2218 | 80 °C | 100 % | 2475 mm | 9222 mm | 6267 ㎥ | 9242 t | 15 | 2026-07-24 11:58:03.000 | |||
| WJWJR05 | 1 | 9611 % | 5834 | 80 °C | 100 % | 7647 mm | 4635 mm | 8605 ㎥ | 4636 t | 15 | 2026-07-24 11:57:56.000 | |||
| WJWJR05 | 1 | 6324 % | 7099 | 80 °C | 100 % | 9815 mm | 9084 mm | 5732 ㎥ | 1380 t | 15 | 2026-07-24 11:57:50.000 | |||
| WJWJR05 | 1 | 3392 % | 8670 | 80 °C | 100 % | 7105 mm | 9194 mm | 6039 ㎥ | 5908 t | 15 | 2026-07-24 11:57:43.000 | |||
| WJWJR05 | 1 | 3666 % | 6680 | 80 °C | 100 % | 3547 mm | 7666 mm | 7141 ㎥ | 1663 t | 15 | 2026-07-24 11:57:35.000 | |||
| WJWJR05 | 1 | 4990 % | 7373 | 80 °C | 100 % | 7894 mm | 3480 mm | 4174 ㎥ | 6724 t | 15 | 2026-07-24 11:57:28.000 | |||
| WJWJR05 | 1 | 4265 % | 5861 | 80 °C | 100 % | 5092 mm | 7035 mm | 5366 ㎥ | 7094 t | 15 | 2026-07-24 11:57:20.000 | |||
| WJWJR05 | 1 | 3391 % | 5113 | 80 °C | 100 % | 7710 mm | 2114 mm | 5862 ㎥ | 6789 t | 15 | 2026-07-24 11:57:13.000 | |||
| WJWJR05 | 1 | 4826 % | 5791 | 80 °C | 100 % | 1152 mm | 3998 mm | 3115 ㎥ | 7294 t | 15 | 2026-07-24 11:57:06.000 | |||
| WJWJR05 | 1 | 6360 % | 4689 | 80 °C | 100 % | 3279 mm | 3537 mm | 3977 ㎥ | 4114 t | 15 | 2026-07-24 11:56:59.000 | |||
| WJWJR05 | 1 | 1476 % | 1128 | 80 °C | 100 % | 8120 mm | 8910 mm | 2153 ㎥ | 5642 t | 15 | 2026-07-24 11:56:52.000 | |||
| WJWJR05 | 1 | 7838 % | 6460 | 80 °C | 100 % | 1211 mm | 3738 mm | 8290 ㎥ | 6711 t | 15 | 2026-07-24 11:56:45.000 | |||
| WJWJR05 | 1 | 8780 % | 4901 | 80 °C | 100 % | 6688 mm | 6368 mm | 7524 ㎥ | 3260 t | 15 | 2026-07-24 11:56:40.000 |
[첫 페이지] [10] [11] [12] [13] 14 [15] [16] [17] [18] [마지막 페이지]